Location: Buckland
(65.9785°N, 161.1281°W)
Time: 13:38:44
(UTC+00:00)

Transit 4A - Pass Details

Date: 10 October 2022
Orbit: 871 x 972 km, 66.8° (Epoch: 29 November)

Event Time Altitude Azimuth Distance (km) Brightness Sun altitude
Exits shadow 13:24:22 34° 286° (WNW) 1,434 8.6 -23.7°
Maximum altitude 13:27:04 78° 206° (SSW) 910 7.6 -23.5°
Drops below altitude 10° 13:32:55 10° 121° (ESE) 2,529 10.4 -23.1°
Sets 13:35:22 0° 121° (ESE) 3,462 11.1 -22.9°
